Location: Geçitköy
(36.7327°N, 29.8010°E)
Time: 20:09:02
(UTC+00:00)

OAO 2 Rocket - Pass Details

Date: 12 January 2026
Orbit: 668 x 734 km, 35.0° (Epoch: 11 February)

Event Time Altitude Azimuth Distance (km) Brightness Sun altitude
Rises 16:59:20 0° 276° (W) 2,998 7.9 -22.4°
Reaches altitude 10° 17:01:50 10° 268° (W) 2,083 6.9 -22.9°
Maximum altitude 17:06:18 37° 201° (SSW) 1,032 4.4 -23.8°
Enters shadow 17:07:53 29° 162° (SSE) 1,220 4.4 -24.1°
